Theta_e
321 321 320 322 322 318 323 323 326 332 331 326 326 326 326 318 334 337 314 319 324 327 332 335 336 337 337 337 337 334 334 334 335 335 335 336 336 337 337 336 335 334 332 333 334 333 331 328 332
320 321 321 319 323 320 320 318 324 328 326 321 318 318 317 316 309 308 310 322 321 323 329 334 334 334 334 334 334 335 335 335 335 335 336 335 335 335 335 336 335 334 334 335 336 336 334 330 326
320 317 321 327 321 321 319 321 323 325 322 324 322 314 312 311 307 308 310 316 316 317 319 326 329 331 332 333 333 333 333 332 333 333 331 331 332 332 332 332 332 334 334 335 335 335 335 335 331
315 319 320 329 332 326 316 322 326 325 327 323 319 317 307 307 308 309 311 312 313 313 310 311 314 318 321 324 325 326 326 325 324 322 321 321 323 324 322 323 325 327 329 330 331 331 331 333 333
314 319 329 331 330 328 326 324 324 327 327 326 319 315 309 306 309 309 310 311 311 310 307 306 307 308 310 311 312 311 310 309 309 308 307 307 307 307 307 307 308 308 310 313 316 319 322 326 329
317 320 329 333 332 330 328 324 326 326 325 324 316 311 308 307 308 308 310 310 310 309 305 302 302 302 303 303 304 304 303 303 301 301 301 301 302 302 301 301 301 301 303 304 305 304 305 308 311
318 322 328 328 329 328 327 319 324 324 322 323 313 313 306 303 307 308 309 308 307 306 302 300 300 300 300 300 300 300 300 300 300 300 301 302 302 303 301 302 303 309 310 310 309 310 308 309 307
315 320 325 326 329 329 326 319 319 321 320 312 312 312 308 303 307 306 305 306 304 303 302 302 302 301 300 300 300 300 300 300 300 300 302 302 302 302 302 302 304 308 307 309 310 309 308 306 304
316 323 325 325 326 326 319 318 310 308 310 310 308 308 308 306 305 304 302 303 303 303 303 303 303 303 301 301 301 302 302 302 302 301 301 301 301 301 301 301 301 301 301 301 302 302 302 301 301
320 322 323 321 316 316 314 316 311 311 309 309 306 303 304 304 302 300 300 301 302 303 303 303 302 302 301 302 302 302 302 302 302 302 301 301 301 301 301 300 300 300 300 301 301 301 301 301 300
316 321 319 314 311 308 310 315 310 311 309 308 306 303 300 301 300 300 300 301 302 303 303 302 302 302 301 302 302 303 302 302 302 302 302 302 301 300 300 300 300 300 300 301 301 301 301 300 301
316 314 315 311 306 307 310 302 309 308 312 309 305 303 301 300 300 299 299 301 302 302 302 302 302 302 301 302 302 302 302 302 302 301 301 302 301 300 300 300 300 300 300 300 300 300 300 300 301
314 314 308 305 304 304 303 305 306 306 306 302 303 302 302 301 300 300 301 302 302 302 302 302 302 302 301 301 302 302 302 302 301 301 301 301 301 301 300 300 300 300 299 300 300 300 300 300 300
308 307 307 304 304 303 304 305 304 307 305 304 302 302 302 301 300 300 301 302 302 302 303 303 302 302 301 301 302 301 302 301 301 301 301 301 301 301 301 300 300 299 299 299 300 300 300 300 300
305 309 307 306 303 304 301 308 303 305 304 305 305 300 301 302 301 301 302 301 303 303 303 303 302 302 301 301 301 301 301 301 301 301 301 301 301 301 300 300 299 298 299 299 299 299 299 299 298
307 306 311 308 302 303 306 313 311 304 301 302 302 300 298 300 301 302 302 302 303 303 303 303 302 302 302 302 301 301 301 301 301 300 301 301 301 301 300 300 299 298 299 299 299 298 298 298 297
305 308 308 310 302 301 304 309 308 300 299 300 299 297 298 297 298 301 302 303 303 303 303 303 303 302 302 301 301 301 301 300 301 301 301 301 301 300 300 299 298 299 298 298 298 297 297 297 296
306 307 307 307 303 301 300 302 303 302 300 298 298 297 296 298 299 300 302 303 303 303 303 303 303 302 302 301 300 300 300 300 301 301 301 301 301 300 300 298 298 298 298 297 297 296 296 296 295
302 303 301 301 301 301 300 301 302 302 298 298 299 298 298 298 299 298 301 302 302 302 303 303 303 302 302 301 300 300 300 301 301 301 300 301 300 300 299 298 298 297 297 296 296 295 295 295 294
301 301 300 301 301 300 300 300 302 302 301 301 301 301 300 300 296 297 298 300 300 301 302 302 302 302 301 301 300 300 300 301 301 300 300 301 300 299 298 298 297 297 296 295 294 294 293 293 293
300 300 300 302 302 300 299 301 302 303 301 301 302 302 301 301 299 297 297 298 300 300 300 301 302 302 301 300 300 300 300 299 299 300 301 301 299 299 298 298 297 296 296 295 294 293 293 293 292
299 299 301 302 302 300 302 301 302 304 304 304 303 300 301 299 299 298 297 297 299 299 300 301 302 302 301 300 300 300 300 299 300 300 301 300 299 298 297 297 296 296 295 294 293 293 292 292 291
299 300 301 301 301 301 301 301 300 302 305 306 303 301 299 298 297 297 298 298 299 299 300 301 302 302 301 301 300 300 300 299 299 299 299 299 298 297 297 296 296 295 294 293 293 293 292 292 291
298 300 301 301 300 301 300 300 299 303 305 307 305 304 301 299 297 296 297 299 298 299 299 300 301 301 301 301 300 300 299 299 299 299 299 298 298 297 296 296 295 295 294 293 293 293 292 291 290
299 299 303 303 299 303 301 301 302 303 304 304 306 303 302 298 297 296 295 295 296 297 299 299 300 300 301 301 300 300 300 299 299 299 298 297 297 296 296 295 295 294 294 293 293 292 290 290 289
298 298 303 301 308 308 301 304 306 304 303 302 302 302 300 298 297 296 295 296 297 297 298 299 299 300 300 300 300 300 300 299 299 298 298 297 297 296 295 295 294 294 294 293 292 290 289 289 289
297 300 301 302 296 302 302 301 302 304 302 302 301 299 299 299 298 297 296 295 297 298 299 299 300 300 300 300 300 300 299 298 298 298 297 297 296 295 295 294 294 294 294 292 290 289 289 288 288
297 297 300 299 297 301 304 303 304 306 305 301 301 299 298 298 297 296 295 295 297 298 299 300 300 300 300 300 300 300 299 298 298 298 297 296 296 295 294 294 294 294 293 291 289 288 288 287 287
296 298 297 298 302 304 307 306 302 303 304 302 300 299 298 297 297 296 295 296 297 299 300 300 300 300 299 300 300 299 299 298 298 298 297 296 295 295 294 294 294 294 292 290 289 288 287 287 287
295 298 299 300 301 303 307 306 304 302 303 302 303 301 299 297 296 295 295 295 296 297 299 300 300 300 300 300 300 299 299 298 298 297 296 295 295 294 294 294 294 293 290 289 288 287 288 287 287
Wind_Speed
20 23 14 3 3 4 4 6 2 3 2 2 1 2 6 4 5 4 9 18 17 15 14 14 12 12 11 8 7 6 5 4 3 2 1 2 1 2 5 7 6 6 5 5 5 6 6 7 6
18 19 3 2 4 0 5 4 6 6 4 8 6 2 4 3 3 6 11 18 16 14 13 15 13 11 10 9 8 8 7 6 4 2 3 3 1 1 3 3 1 3 5 6 7 7 7 8 7
17 6 2 2 3 5 5 3 5 2 6 3 4 3 4 5 1 16 11 21 17 14 13 13 12 11 11 10 10 9 8 6 4 4 2 1 3 2 1 2 2 2 2 3 5 6 7 7 9
4 4 3 2 8 7 6 2 3 5 2 2 5 5 2 2 14 13 22 20 17 14 12 11 11 10 9 9 9 8 8 6 5 3 1 1 1 1 2 2 2 3 4 6 7 8 7 6 8
1 2 1 3 7 7 5 3 9 8 5 5 5 5 4 1 9 23 21 19 17 15 11 10 10 9 9 9 8 7 7 5 4 4 3 2 2 3 3 4 4 4 6 7 8 9 10 10 10
1 2 1 5 8 6 4 8 6 4 4 5 4 9 5 11 22 23 21 20 15 14 11 10 9 9 9 8 8 7 6 6 5 4 4 3 1 0 1 2 3 4 5 7 8 9 10 10 11
5 3 5 6 5 8 5 7 6 6 6 6 8 7 1 7 20 22 21 19 15 12 11 12 11 11 10 10 10 10 9 8 7 5 4 4 3 3 4 4 5 8 8 8 9 9 9 10 11
4 4 4 5 7 13 6 6 3 8 6 2 6 6 6 10 24 22 20 19 15 14 14 14 13 12 12 11 10 9 8 7 6 4 4 4 3 4 5 6 8 8 9 8 9 9 10 11 11
4 2 5 6 6 7 2 4 1 1 5 1 1 5 3 32 29 25 22 20 18 17 16 15 14 13 12 10 10 8 7 6 6 4 4 3 3 3 5 6 6 8 9 8 8 10 10 11 12
5 4 8 4 2 4 4 3 6 5 3 3 1 3 13 34 32 26 23 21 23 22 20 17 16 15 13 11 9 8 7 5 4 3 3 3 3 4 5 5 7 8 8 9 10 10 12 13 15
5 6 3 2 1 2 4 3 3 5 5 8 12 8 9 14 20 22 24 30 32 26 22 20 18 16 15 14 11 9 7 4 3 1 1 2 4 4 5 6 7 8 9 10 11 12 14 17 16
3 4 3 1 1 3 3 6 5 7 7 4 9 16 14 16 15 21 23 31 30 28 25 22 21 19 18 15 13 10 8 6 5 1 0 1 4 5 5 7 9 9 10 12 12 15 16 16 17
5 3 2 4 4 5 3 8 7 7 10 2 7 12 18 16 17 24 29 32 32 30 28 27 25 22 20 17 15 12 9 8 5 2 2 1 4 4 6 7 8 9 11 12 14 16 17 18 18
5 4 6 6 6 4 5 5 2 8 14 10 7 14 15 16 20 18 26 32 35 33 32 30 28 24 22 19 16 13 11 8 5 4 4 2 4 4 7 7 8 10 12 13 14 16 17 18 19
2 3 5 7 5 5 3 10 13 12 6 12 12 11 15 19 18 23 34 32 39 38 36 34 30 26 24 21 17 14 12 9 7 5 4 3 4 4 6 8 9 11 12 13 14 15 16 20 20
4 1 2 1 8 3 5 14 3 0 9 12 11 9 10 14 15 29 31 36 37 38 40 37 32 29 26 22 19 16 13 10 8 6 5 5 4 6 6 7 10 11 12 13 15 17 19 20 23
1 5 5 4 7 4 6 10 6 4 5 10 10 9 10 10 11 23 32 38 38 40 43 40 35 31 28 24 20 17 13 10 8 8 6 6 5 6 6 8 11 10 12 13 15 17 17 21 23
6 6 5 5 5 4 4 22 17 13 6 11 10 10 11 13 20 25 35 39 40 42 43 39 35 32 29 25 21 17 15 12 10 10 7 8 7 5 6 9 9 10 11 12 14 16 17 20 22
3 3 4 3 3 3 9 18 19 15 9 12 16 14 14 17 15 24 31 36 38 41 43 41 39 36 32 29 24 20 17 15 13 10 8 9 7 6 6 7 7 8 10 11 13 15 19 17 20
4 4 6 4 2 3 6 18 18 17 13 16 19 18 20 16 10 13 25 33 34 41 45 43 41 38 35 33 29 18 19 16 14 12 10 11 7 7 7 5 6 7 8 9 11 12 14 11 18
4 6 4 5 3 4 6 11 8 8 9 10 16 17 15 19 17 14 16 28 33 35 41 43 42 40 37 34 28 18 15 11 14 14 12 11 8 7 7 4 4 5 7 9 10 10 9 10 13
5 4 2 2 1 4 1 7 7 7 11 7 9 10 14 13 10 14 17 18 28 34 39 42 42 41 38 35 31 28 23 15 14 12 12 9 8 8 6 5 5 5 6 8 9 9 10 11 15
5 2 3 2 2 4 2 3 8 5 8 11 8 10 10 9 10 13 16 26 33 34 42 45 44 43 40 37 34 30 24 18 11 12 11 9 9 9 7 6 5 5 6 7 8 10 12 13 15
5 5 6 5 2 3 8 8 5 5 6 5 3 5 6 8 8 8 13 23 25 32 37 41 44 45 41 39 36 32 28 21 17 14 12 10 10 10 9 7 6 6 5 6 8 11 14 16 18
2 6 1 3 1 7 3 4 5 10 9 6 3 7 6 6 7 8 10 11 18 28 34 39 42 41 41 38 37 34 29 24 21 17 14 12 12 12 10 9 7 5 5 6 9 13 16 19 20
7 6 5 8 4 3 2 8 7 10 9 9 8 6 5 6 7 8 9 11 21 26 31 34 38 37 41 39 40 36 30 27 23 19 15 13 14 12 11 9 6 5 5 6 10 15 18 19 20
6 6 3 4 1 3 5 7 10 10 10 5 7 5 8 8 7 8 6 9 18 25 32 40 41 40 42 43 40 36 32 28 25 21 16 14 14 13 11 9 7 5 5 7 11 16 18 20 20
4 1 2 2 2 5 5 6 8 5 6 6 6 10 8 6 6 6 7 9 20 26 32 35 38 41 42 41 40 37 34 29 25 21 18 17 14 14 13 10 7 6 5 8 13 16 19 19 21
4 3 2 2 4 5 2 6 7 8 7 9 10 8 8 8 8 7 7 10 16 18 27 33 35 35 36 38 38 36 32 29 25 23 19 18 15 15 14 10 8 6 6 9 14 16 18 19 20
2 6 7 4 6 4 3 11 2 5 2 6 3 6 6 7 8 7 7 6 9 18 23 30 33 35 37 37 36 35 31 29 28 25 21 18 17 16 14 11 9 7 7 10 13 16 16 20 20
Wind_Direction
329 337 332 51 45 64 264 255 283 171 181 162 131 180 157 59 154 199 130 164 151 150 160 151 146 147 138 135 136 153 158 167 175 215 255 11 329 341 283 272 290 297 301 308 315 320 323 323 323
329 335 349 87 105 52 266 239 229 206 148 131 97 94 43 132 122 150 139 159 161 155 159 168 157 150 159 162 164 160 153 153 127 103 92 85 26 14 56 55 318 305 290 291 300 298 302 305 311
324 337 66 131 159 198 227 227 213 193 175 162 114 73 144 166 58 156 161 157 163 158 160 157 160 165 164 167 175 179 177 191 185 149 132 10 313 338 355 345 359 24 6 328 322 329 313 285 293
328 7 20 140 236 247 210 226 188 162 231 166 143 110 72 306 156 169 152 163 169 162 164 161 156 154 156 157 159 160 155 159 160 163 190 269 289 289 301 323 312 307 300 289 295 288 291 292 285
60 62 237 237 245 255 253 243 172 189 183 173 170 189 156 283 170 153 160 171 176 163 167 169 170 169 166 161 157 158 162 162 173 189 203 235 254 270 288 290 293 300 298 296 295 300 302 298 289
348 104 184 231 242 263 263 192 182 213 196 175 86 138 191 160 153 159 165 173 182 171 168 176 176 176 176 174 173 175 171 169 168 157 156 164 161 39 332 321 333 334 328 322 318 303 300 301 298
163 133 225 231 256 277 237 144 183 191 173 220 151 141 173 181 168 163 166 171 171 176 168 163 158 151 148 147 143 144 147 141 141 134 133 119 98 52 24 14 17 21 14 4 356 356 344 331 319
156 141 249 228 233 268 225 188 207 168 214 93 143 187 211 205 170 164 162 167 174 175 169 161 155 152 147 148 143 143 140 140 130 117 111 94 73 50 31 25 22 25 11 12 13 354 350 345 337
150 177 232 230 200 245 227 180 33 199 127 165 121 159 277 163 162 160 159 166 173 175 178 177 173 170 165 159 155 145 137 128 120 95 73 67 58 37 25 17 16 7 4 3 358 346 345 339 332
165 185 220 212 218 261 284 214 177 152 156 206 172 12 142 155 163 162 170 174 180 182 183 184 183 182 178 174 170 164 155 144 142 113 57 37 32 13 12 12 7 5 356 351 348 346 338 335 328
192 218 204 265 283 274 272 280 218 156 224 212 199 167 157 161 172 174 183 185 188 189 186 187 190 187 190 185 185 178 169 161 163 142 77 24 2 1 356 356 355 354 350 342 342 339 335 333 330
233 251 245 269 268 307 268 322 280 204 227 249 199 167 167 177 184 185 189 192 191 189 192 192 195 193 192 192 186 185 180 180 178 210 204 351 347 350 350 354 350 347 346 339 339 334 331 330 330
221 261 256 239 247 249 287 249 236 253 247 192 151 167 182 187 192 198 195 196 195 195 195 196 197 199 196 195 194 190 190 189 188 203 240 293 329 338 346 341 342 344 339 334 333 332 331 332 330
185 211 257 239 238 232 232 255 145 224 228 226 181 192 194 194 197 191 198 200 201 201 198 197 200 201 197 198 198 194 195 193 196 204 216 257 304 328 331 332 338 338 334 331 331 331 333 331 329
172 253 282 221 209 238 152 280 231 229 199 219 218 205 203 206 192 197 202 202 202 203 200 199 200 200 200 199 201 200 197 197 202 211 215 246 281 301 317 326 335 334 331 328 330 333 331 329 334
289 122 265 198 148 202 144 264 226 34 191 229 231 217 217 215 207 206 204 205 205 204 201 200 200 200 200 201 201 201 200 199 207 212 209 237 261 293 309 325 332 333 330 332 335 337 334 336 337
190 275 219 301 200 139 172 268 262 102 184 244 241 236 219 227 223 215 209 209 205 202 197 200 200 202 200 200 201 202 202 206 208 203 214 230 242 285 305 324 329 331 333 337 338 335 337 335 335
204 220 251 232 206 198 210 262 268 269 249 243 245 237 232 221 224 211 212 210 206 201 199 201 200 203 201 200 199 200 204 208 208 209 222 226 251 267 301 321 328 330 334 339 340 335 336 336 340
146 222 261 277 203 211 229 257 261 272 251 251 241 234 232 230 223 209 209 207 204 203 202 202 199 200 198 194 194 198 205 210 214 211 217 238 243 270 300 319 327 329 340 342 341 340 340 347 349
231 250 260 259 146 205 292 273 274 265 250 233 241 231 229 222 205 198 198 199 200 199 201 200 201 199 201 201 200 200 206 215 210 210 215 228 238 272 296 317 325 325 331 338 343 352 342 333 349
228 207 219 236 312 227 307 274 257 259 249 252 242 241 226 218 209 196 195 195 196 197 198 200 201 201 204 202 200 198 185 192 201 205 210 221 244 267 287 295 307 314 326 337 339 340 347 328 334
247 206 162 170 121 248 169 286 281 276 277 254 248 224 229 215 208 198 193 189 192 196 200 202 203 203 206 203 203 206 202 200 210 206 200 218 241 263 267 276 282 300 319 328 329 334 327 324 315
227 118 142 109 183 355 232 280 272 272 276 263 271 238 223 214 198 194 195 193 194 189 197 202 203 204 207 204 208 210 214 215 201 196 204 218 238 253 251 261 265 284 304 315 320 324 325 321 311
132 70 43 47 68 296 199 190 232 228 238 286 295 303 232 217 213 200 197 191 186 189 192 194 199 204 206 204 208 213 216 212 209 208 214 221 237 241 248 247 257 276 299 312 323 325 322 320 317
97 101 327 341 347 231 151 183 262 267 248 232 255 272 246 209 185 174 172 169 170 178 187 192 196 201 206 206 210 214 217 217 218 217 221 224 234 240 243 244 254 271 297 318 324 325 323 323 317
184 174 170 206 205 252 37 234 253 243 282 254 259 235 195 190 185 187 185 179 179 181 186 189 196 200 206 208 211 214 217 218 219 221 223 230 239 246 247 251 260 278 298 319 326 321 320 322 316
192 206 198 103 67 35 225 280 294 261 255 258 232 188 213 211 193 197 188 181 177 182 188 192 198 203 209 211 211 212 216 215 216 219 224 228 235 243 245 250 257 263 290 317 320 318 320 321 319
178 223 110 359 186 246 272 265 233 273 246 225 233 227 232 243 227 209 197 191 193 193 194 196 202 206 211 212 212 213 216 216 217 217 221 225 231 235 241 243 246 253 289 315 318 321 322 320 319
156 204 201 138 168 182 273 258 220 236 209 212 232 232 221 223 220 217 222 213 205 201 197 200 206 210 212 213 213 216 216 214 214 218 221 224 227 231 234 236 235 254 295 316 316 318 320 319 321
243 189 165 142 224 230 179 256 275 264 178 208 257 240 227 228 235 224 215 207 208 212 210 211 213 214 217 216 216 217 216 212 213 216 219 221 226 228 231 230 231 251 287 309 314 317 320 325 315